Regional Weather Roundup
Issued by NWS

Home | Current Version | Previous Version | Graphics & Text | Print | Product List | Glossary On
Versions: 1 2 3 4 5 6 7 8 9 10 11 12 13 14 15 16 17 18 19 20 21 22 23 24 25 26 27 28 29 30 31 32 33 34 35 36 37 38 39 40 41 42 43 44 45 46 47 48 49 50
000
ASUS43 KIND 161209
RWRIN

WEATHER ROUNDUP FOR INDIANA
NATIONAL WEATHER SERVICE INDIANAPOLIS IN
700 AM EST SAT DEC 16 2017

NOTE: "FAIR" INDICATES FEW OR NO CLOUDS BELOW 12,000 FEET WITH NO
SIGNIFICANT WEATHER AND/OR OBSTRUCTIONS TO VISIBILITY.

* - STATION DOES NOT REPORT WEATHER SUCH AS PRECIPITATION OR FOG.

+ - STATION NOT QUALITY CONTROLLED BY THE NATIONAL WEATHER SERVICE.
    USE DATA WITH CAUTION...ESPECIALLY DEWPOINT AND RELATIVE
    HUMIDITY OBSERVATIONS.

INZ001>003-010>013-019-020-161300-
NORTHWEST INDIANA

CITY           SKY/WX    TMP DP  RH WIND       PRES   REMARKS
GARY /AIRPORT/ CLOUDY    37  23  56 SW12G23   29.87S WCI  30
KNOX *+        CLOUDY    34  27  75 SW13G20   29.89R WCI  25
LA PORTE +     CLOUDY    34  26  71 SW14      29.89R WCI  25
6HR MIN TEMP:  33; 6HR MAX TEMP:  35;

MICHIGAN CITY+ CLOUDY    36  27  69 S9        29.88R WCI  29
MONTICELLO +   CLEAR     33  24  67 S12       29.91F WCI  25
6HR MIN TEMP:  33; 6HR MAX TEMP:  35;

RENSSELAER +   CLOUDY    34  19  55 SW14      29.90S WCI  24
VALPARAISO     CLOUDY    36  25  64 SW13      29.88R WCI  27
6HR MIN TEMP:  36; 6HR MAX TEMP:  37;


$$

LMZ046-743>745-161300-
SOUTHERN LAKE MICHIGAN

STATION/POSITION TIME  TEMP    WIND        PRES    WAVE
                       AIR SEA DIR/SP/G            HT
                 (UTC) (F)     (DEG/KT/KT) (MB)    (FT)
BURNS HARBOR     1140   37     210/ 15/ 21 1011.5R
MICHIGAN CITY    1140   37     190/ 16/ 18   N/A

$$

INZ004-005-014>016-021>024-161300-
NORTH CENTRAL INDIANA

CITY           SKY/WX    TMP DP  RH WIND       PRES   REMARKS
GOSHEN         CLOUDY    34  25  69 SW16      29.89R WCI  24
6HR MIN TEMP:  32; 6HR MAX TEMP:  34;

LOGANSPORT +   CLOUDY    32  25  74 SW12      29.93S WCI  23
PERU/GRISSOM   MOCLDY    33  25  72 SW14      29.92F WCI  23
6HR MIN TEMP:  33; 6HR MAX TEMP:  35;

ROCHESTER +    CLOUDY    36  28  75 SW13G20   29.91R WCI  27
SOUTH BEND     CLOUDY    34  26  72 SW13      29.89R WCI  25
6HR MIN TEMP:  32; 6HR MAX TEMP:  34;

WARSAW +       CLOUDY    34  27  75 SW8       29.90R WCI  27

$$

INZ006>009-017-018-025>027-161300-
NORTHEAST INDIANA

CITY           SKY/WX    TMP DP  RH WIND       PRES   REMARKS
AUBURN +       CLOUDY    34  25  69 SW8       29.91S WCI  27
FORT WAYNE     CLOUDY    33  26  75 SW15      29.93S WCI  23
6HR MIN TEMP:  32; 6HR MAX TEMP:  34;

HUNTINGTON +   CLOUDY    35  24  64 SW13G20   29.93R WCI  26
6HR MIN TEMP:  32; 6HR MAX TEMP:  35;


$$

INZ028-029-035-036-043>045-051>053-161300-
WEST CENTRAL INDIANA

CITY           SKY/WX    TMP DP  RH WIND       PRES   REMARKS
CRAWFORDSVL +  CLEAR     29  24  83 S12       29.96F WCI  19
6HR MIN TEMP:  28; 6HR MAX TEMP:  32;

GREENCASTLE +  CLEAR     32  25  74 S6        30.00F WCI  26
LAFAYETTE      CLOUDY    32  25  75 SW8       29.94F WCI  25
6HR MIN TEMP:  32; 6HR MAX TEMP:  34;

TERRE HAUTE    CLEAR     31  25  78 S10       30.01S WCI  22
6HR MIN TEMP:  29; 6HR MAX TEMP:  35;


$$

INZ030>032-037>040-046>048-054>057-064-065-161300-
CENTRAL INDIANA

CITY           SKY/WX    TMP DP  RH WIND       PRES   REMARKS
COLUMBUS       CLEAR     30  25  80 S12       30.06  WCI  21
FRANKFORT +    PTCLDY    34  27  75 SW13G18   29.95F WCI  25
6HR MIN TEMP:  32; 6HR MAX TEMP:  37;

INDIANAPOLIS   CLOUDY    30  24  78 S9        30.00F WCI  22
6HR MIN TEMP:  30; 6HR MAX TEMP:  34;

-EAGLE CREEK   PTCLDY    33  24  69 S9        29.98F WCI  25
6HR MIN TEMP:  32; 6HR MAX TEMP:  35;

KOKOMO +       PTCLDY    33  25  72 SW18      29.94F WCI  22
6HR MIN TEMP:  33; 6HR MAX TEMP:  35;

MARION +       MOCLDY    32  25  74 SW12      29.96S WCI  23
MT COMFORT *+  CLOUDY    30  28  93 S12       30.00S WCI  21
SHELBYVILLE    CLOUDY    30  23  75 S12       30.02F WCI  20
6HR MIN TEMP:  28; 6HR MAX TEMP:  32;

ZIONSVILLE +   CLOUDY    32  25  76 S16       29.96F WCI  21
6HR MIN TEMP:  31; 6HR MAX TEMP:  32;


$$

INZ033-034-041-042-049-050-058-059-161300-
EAST CENTRAL INDIANA

CITY           SKY/WX    TMP DP  RH WIND       PRES   REMARKS
MUNCIE         PTCLDY    35  25  66 SW15G25   29.96F WCI  25
6HR MIN TEMP:  34; 6HR MAX TEMP:  35;

RICHMOND +     PTCLDY    32  27  80 SW13      30.01F WCI  22

$$

INZ060-061-067>069-081>083-085>088-161300-
SOUTHWEST INDIANA

CITY           SKY/WX    TMP DP  RH WIND       PRES   REMARKS
EVANSVILLE     CLEAR     33  28  81 S8        30.11S WCI  26
6HR MIN TEMP:  30; 6HR MAX TEMP:  35; 6HR PCP: TRACE;

HUNTINGBURG +  CLEAR     32  27  81 S13       30.11S WCI  22
6HR MIN TEMP:  31; 6HR MAX TEMP:  35;

WASHINGTON +   CLEAR     31  25  77 S14       30.06F WCI  21
6HR MIN TEMP:  31; 6HR MAX TEMP:  32;


$$

INZ062-063-066-070>080-084-089>092-161300-
SOUTH CENTRAL AND SOUTHEAST INDIANA

CITY           SKY/WX    TMP DP  RH WIND       PRES   REMARKS
BEDFORD +      CLEAR     32  25  74 S8        30.05F WCI  25
BLOOMINGTON    CLEAR     31  24  75 SW9       30.04R WCI  23
6HR MIN TEMP:  29; 6HR MAX TEMP:  33;

MADISON *+     CLEAR     32  25  74 S6        30.10S WCI  26
NORTH VERNON + CLEAR     28  23  80 S7        30.08S WCI  21
SEYMOUR +      CLEAR     32  25  74 S8        30.07S WCI  25

$$





USA.gov is the U.S. government's official web portal to all federal, state and local government web resources and services.